Tracking 18823 objects as of 21-October-2017
HD Live streaming from Space Station
objects crossing your sky now

COSMOS 2087

Track COSMOS 2087 now!
COSMOS 2087 is classified as:


NORAD ID: 20707
Int'l Code: 1990-064A
Perigee: 4,202.4 km
Apogee: 36,156.8 km
Inclination: 68.8 °
Period: 717.6 minutes
Semi major axis: 26550 km
RCS: 8.1788 m2 (large)
Launch date: July 25, 1990
Source: Commonwealth of Independent States (former USSR) (CIS)
Launch site: PLESETSK MISSILE AND SPACE COMPLEX (PKMTR)
aabbcc
Your satellite tracking list
Your tracking list is empty





NASA's NSSDC Master Catalog

Two Line Element Set (TLE):
1 20707U 90064A   17293.43034904 -.00000791  00000-0  00000+0 0  9991
2 20707  68.7853  14.5115 6017629 114.2424 248.2701  2.00673756199561
Source of the keplerian elements: AFSPC